Theta_e
343 342 340 339 339 339 339 338 337 336 336 335 335 336 336 337 337 337 336 336 336 336 336 336 336 336 336 336 336 336 336 335 335 335 334 334 334 334 332 333 333 334 334 334 334 333 332 332 331 331 332 331 331 331 330 331 332 333 333 333 332 332 332 332 331 331 331 330 330 329 329 330 332 332 332 332 332 332 332 331 331 330 330 329 329
341 340 339 339 339 339 338 338 337 337 336 336 335 335 335 336 336 336 336 336 335 336 336 337 337 337 336 336 336 336 336 336 335 335 335 335 333 332 332 333 333 334 334 334 333 333 332 331 331 331 331 332 331 331 330 330 331 332 332 332 332 331 331 330 330 329 329 330 330 330 330 330 332 332 333 333 332 332 332 332 331 330 330 329 329
341 340 339 339 339 339 338 338 338 337 337 336 336 335 335 336 335 336 336 335 335 335 337 337 337 337 337 336 336 336 336 336 335 335 335 333 332 332 333 334 334 334 333 333 332 332 331 331 330 331 331 332 332 332 331 331 331 331 332 332 332 331 330 330 329 329 329 330 331 332 331 331 331 332 332 332 332 332 332 332 332 331 330 330 329
340 340 340 340 339 338 338 338 337 337 337 336 336 335 334 335 335 336 336 335 335 335 336 336 337 337 337 336 336 336 336 336 335 335 333 332 333 334 335 335 334 333 332 332 331 330 330 329 329 329 330 331 332 332 332 332 331 330 330 331 331 331 330 329 329 329 329 330 332 332 331 331 331 331 331 331 331 331 332 332 332 331 330 330 329
339 339 339 339 339 338 337 337 337 336 335 334 335 334 333 333 335 335 335 335 336 335 335 335 335 336 336 336 336 336 336 334 334 334 332 332 334 335 334 334 334 333 333 332 332 330 329 329 329 328 329 331 332 332 332 332 332 332 330 330 330 330 330 329 328 328 329 330 332 332 331 330 330 330 330 330 330 330 331 331 331 331 330 330 329
338 338 338 338 338 337 336 336 336 335 333 333 334 334 333 333 334 334 334 334 335 334 334 334 334 334 335 335 336 336 336 335 334 334 333 332 334 334 334 334 334 334 333 333 333 332 331 330 330 330 331 331 332 332 332 331 331 332 331 330 329 329 329 329 328 327 328 329 331 332 331 331 331 330 330 330 330 329 330 331 331 331 331 330 330
337 336 337 338 337 336 336 335 335 334 333 333 334 334 333 333 332 332 332 332 332 333 333 333 333 333 333 333 334 335 336 335 335 335 334 334 335 334 334 334 335 334 334 333 333 333 332 332 332 332 332 332 332 332 332 331 331 331 331 331 330 329 328 328 328 327 328 329 330 330 331 331 331 329 329 330 329 329 329 329 330 330 331 330 330
335 333 334 336 336 335 335 335 334 333 333 334 334 334 334 333 331 331 331 332 331 331 331 331 331 331 332 332 332 334 335 335 335 334 334 334 335 334 334 334 334 334 333 333 333 332 332 332 332 333 333 332 332 331 331 331 331 331 330 330 330 330 329 329 329 329 329 329 329 330 331 331 330 329 330 330 329 329 329 329 329 329 330 330 330
333 332 332 334 335 334 334 334 333 332 332 334 334 334 334 333 332 331 331 331 331 330 330 330 330 331 331 331 331 332 333 334 334 334 334 334 334 334 333 333 332 332 332 333 333 332 331 332 332 333 333 332 332 331 331 330 331 330 330 330 330 330 330 330 330 330 330 330 329 329 330 330 330 329 330 331 331 330 329 329 329 329 329 329 329
332 332 331 332 333 333 333 333 333 331 331 332 333 333 332 332 332 332 330 330 330 329 330 330 330 331 331 330 331 332 332 332 332 332 332 332 332 332 332 331 331 331 332 332 332 331 331 331 331 332 332 332 331 331 330 330 330 330 330 330 330 330 330 330 330 330 330 330 329 329 329 329 329 328 329 330 331 331 330 330 330 329 329 328 328
329 330 329 329 331 331 331 332 332 331 331 331 331 331 331 330 330 330 330 329 328 328 329 329 330 331 332 331 331 332 332 332 332 331 331 331 331 330 330 330 329 330 331 331 331 330 329 330 330 331 331 331 331 330 330 330 330 330 330 330 330 330 330 330 330 330 329 329 330 330 329 329 329 328 328 328 330 330 330 330 330 329 329 329 329
327 328 328 328 330 330 330 330 330 329 330 330 330 330 329 329 328 328 327 327 327 326 327 327 328 329 330 330 330 330 330 331 332 331 330 330 330 330 329 329 328 329 330 330 329 329 329 329 330 330 330 330 330 330 330 329 329 329 330 330 330 330 329 329 330 330 330 330 330 330 330 329 329 329 328 328 328 329 330 330 330 330 330 329 329
327 328 328 328 329 329 328 328 327 327 327 328 328 328 327 327 327 326 325 324 324 324 325 325 326 327 327 328 328 329 328 329 329 329 329 329 328 329 328 328 327 326 327 327 327 327 328 328 328 329 330 330 330 329 329 329 329 329 329 329 330 330 329 330 329 330 330 330 330 330 330 330 329 329 329 328 328 329 330 330 330 330 329 329 329
326 327 328 328 327 327 327 326 326 325 325 325 324 324 325 325 324 323 322 322 321 321 322 323 324 325 326 326 327 327 327 327 327 327 327 326 326 326 326 326 325 325 325 326 326 326 326 326 326 327 328 329 329 329 328 328 328 329 329 329 329 329 329 329 329 329 329 330 330 330 330 330 329 329 329 329 328 329 329 329 329 329 329 330 330
325 325 326 325 324 324 325 324 324 324 323 323 322 322 322 322 321 320 320 319 319 318 319 320 321 322 322 323 324 324 324 324 324 324 323 323 323 323 323 323 323 323 324 325 325 324 324 324 324 324 326 327 328 328 328 328 329 329 329 328 328 328 328 328 329 328 328 328 329 329 329 329 329 329 329 330 329 329 329 328 329 330 330 330 330
323 323 322 322 322 322 322 322 321 321 321 321 321 321 320 320 319 319 318 317 317 316 316 317 317 318 318 319 319 319 320 320 320 320 320 320 320 320 321 321 321 321 322 323 324 324 323 323 323 322 323 325 326 327 328 328 328 328 328 328 327 327 328 328 329 328 328 328 328 329 329 329 329 329 329 330 330 330 329 329 329 330 330 330 330
321 320 320 320 320 320 320 320 319 319 319 320 320 320 319 318 318 317 316 315 315 315 315 315 316 316 317 317 317 317 317 317 318 318 318 319 319 319 319 320 320 319 320 321 322 322 322 322 322 322 323 324 325 326 327 326 326 326 327 327 327 327 328 328 328 328 328 328 328 329 329 330 329 329 329 329 330 330 330 330 330 330 330 330 330
319 319 319 319 319 319 319 318 318 318 318 319 319 318 318 317 316 315 315 315 315 315 315 315 315 316 316 316 316 316 316 316 317 317 317 317 317 317 318 318 318 319 319 319 320 320 320 321 321 321 322 322 324 325 325 325 325 325 326 326 326 326 327 327 327 328 328 328 328 328 329 329 329 329 328 328 329 329 330 330 330 330 330 330 330
319 318 318 319 319 319 318 318 317 318 318 318 317 317 316 316 315 314 314 314 314 314 314 315 315 315 315 316 316 316 316 316 316 316 316 316 316 316 316 317 317 317 318 319 319 320 320 320 320 320 320 321 322 322 323 324 324 325 326 326 326 326 326 326 326 326 327 327 327 328 328 328 328 328 328 328 328 329 329 329 330 330 330 330 330
318 317 318 318 318 318 318 317 317 317 317 317 316 316 316 315 314 314 314 314 314 313 313 314 314 314 314 315 315 315 315 315 315 315 315 316 316 316 316 317 317 317 317 318 318 319 319 320 319 318 318 319 319 320 321 321 322 323 325 326 327 326 326 325 325 325 325 325 326 327 328 328 327 327 327 328 328 328 329 329 329 329 330 330 330
317 317 317 317 317 317 317 317 316 316 316 315 315 315 315 315 314 314 314 313 313 313 313 313 313 313 313 314 314 314 314 314 314 314 315 315 316 316 316 316 316 316 316 317 317 318 318 319 318 318 318 318 318 319 319 319 319 320 322 324 325 326 325 325 324 324 324 324 325 325 326 326 327 327 327 327 327 327 328 328 328 328 329 330 330
316 316 317 316 316 316 316 316 315 315 315 314 314 314 315 315 314 314 313 313 312 312 312 312 312 312 312 312 313 313 313 312 313 314 314 315 315 315 315 315 315 315 315 315 316 316 317 317 317 317 318 318 318 317 318 318 318 318 319 320 321 322 323 323 323 324 324 324 323 323 324 324 325 326 326 327 327 328 328 328 328 328 329 329 329
316 316 316 316 316 315 315 315 314 314 313 313 313 313 314 315 314 313 313 312 312 311 311 311 311 311 311 311 311 311 311 311 312 313 314 314 315 315 315 315 314 314 314 314 314 315 315 316 316 316 317 317 317 317 316 317 317 317 317 317 318 318 319 320 321 321 322 322 322 323 324 325 325 325 325 326 326 327 328 328 328 328 328 328 328
315 315 315 315 315 314 314 313 313 312 312 312 312 313 313 313 313 312 312 311 311 310 310 310 310 310 309 309 309 309 310 310 311 311 312 313 313 314 314 314 314 314 314 314 314 314 314 314 315 315 315 315 315 315 315 315 316 316 316 316 316 316 316 317 318 318 319 320 321 322 323 324 325 325 325 325 325 326 327 328 328 328 328 329 328
313 314 313 313 313 312 312 311 311 311 311 312 312 312 312 312 311 311 311 310 310 309 309 309 308 308 308 308 308 308 309 309 309 309 310 311 312 312 313 313 313 313 313 313 313 313 313 313 313 314 314 314 314 313 314 314 314 314 315 315 315 315 315 315 316 316 317 318 319 320 321 322 324 325 325 325 325 326 326 326 327 328 328 329 329
312 312 312 312 312 311 310 310 310 311 311 311 311 311 311 311 310 310 309 309 309 308 308 308 307 307 307 307 307 307 307 307 308 308 308 309 310 310 310 311 311 311 312 312 312 312 312 312 312 312 312 312 312 312 312 312 313 313 313 314 314 314 314 315 315 315 316 316 317 318 319 320 321 323 323 324 324 325 326 326 326 328 328 329 329
311 311 311 311 311 310 310 310 310 310 310 310 310 310 310 309 309 308 308 308 308 307 307 307 306 306 306 306 306 306 306 306 306 307 307 307 308 308 309 309 309 310 310 310 310 310 310 310 310 310 310 310 310 310 310 311 311 311 312 313 313 313 314 314 315 315 316 316 317 317 317 318 319 320 322 323 323 324 325 326 326 326 327 328 328
311 311 311 310 310 310 309 309 309 309 309 309 309 309 308 308 308 308 307 307 307 307 306 306 305 305 305 305 305 305 305 305 305 306 306 306 306 306 307 307 308 308 308 308 308 308 309 309 309 309 308 309 309 309 309 309 310 310 310 311 312 313 313 313 314 315 316 316 317 317 317 318 318 318 319 320 322 324 325 325 326 326 326 327 328
310 310 310 310 309 309 309 309 309 309 309 308 308 308 308 307 307 307 306 306 306 306 305 305 305 304 304 304 304 304 304 304 304 304 305 305 304 304 305 306 306 307 306 306 306 306 307 307 307 307 307 307 307 307 307 307 307 308 308 309 310 311 312 313 313 314 315 315 316 316 317 317 318 318 318 318 319 321 323 325 325 326 326 326 327
309 309 309 309 309 308 308 308 308 308 308 308 307 307 307 306 306 306 305 305 305 305 304 304 304 303 303 303 302 302 302 302 303 303 303 303 303 303 304 304 305 305 304 304 304 304 304 305 305 305 305 305 305 306 305 305 305 306 307 308 309 310 311 312 313 313 314 314 314 315 316 316 317 318 318 318 318 319 320 323 324 325 326 326 327
309 309 308 308 308 308 308 307 307 307 307 307 307 306 306 305 305 305 304 304 304 304 303 303 302 301 301 301 301 302 302 302 302 302 302 302 303 303 303 303 303 303 303 302 303 303 303 303 303 303 303 304 304 304 304 304 304 305 306 307 308 309 310 311 312 312 312 313 313 313 314 315 316 317 317 318 318 318 319 320 322 325 326 326 326
308 308 308 308 308 308 307 307 307 306 306 306 306 305 305 304 304 303 303 303 303 302 301 300 300 300 300 300 301 301 301 301 301 302 302 302 302 301 301 301 301 301 301 301 301 301 301 301 301 301 301 301 302 302 302 303 303 304 305 306 307 308 309 310 311 311 311 311 312 313 314 315 316 317 317 318 318 319 319 319 321 323 324 325 325
308 308 308 308 307 307 307 306 306 305 305 305 305 305 304 303 302 302 302 301 300 299 299 299 299 299 299 299 299 299 299 300 300 300 300 300 300 300 300 300 300 300 300 300 300 300 300 300 299 300 299 299 300 300 300 301 302 303 304 305 306 307 308 309 309 310 310 310 310 311 313 315 316 317 318 317 318 319 319 319 320 322 323 324 325
308 308 308 308 307 307 306 306 305 305 305 305 304 304 303 301 301 301 300 299 298 298 298 298 298 298 298 298 298 298 298 299 299 299 299 299 298 298 298 297 297 298 298 298 299 299 299 299 299 299 299 298 298 298 299 299 300 301 302 303 304 306 307 308 308 308 309 309 309 309 311 313 316 317 317 316 317 319 319 319 319 320 321 322 324
308 308 308 307 307 306 306 305 305 305 304 304 303 303 302 301 300 300 299 299 298 299 299 299 298 298 298 298 298 298 298 298 298 298 297 297 296 296 295 295 295 295 295 296 296 297 298 298 298 298 298 298 298 298 298 298 298 299 300 302 303 305 306 307 307 308 308 307 308 309 310 311 314 316 316 315 316 318 320 320 319 319 320 321 323
307 307 307 307 306 306 306 305 305 304 304 303 303 301 301 300 300 300 300 299 299 299 299 299 299 298 298 297 297 297 298 298 298 297 297 296 296 296 295 295 295 295 294 294 294 295 296 296 297 298 298 297 297 297 297 297 298 298 299 300 302 303 304 305 306 307 307 306 306 307 308 310 312 315 315 316 317 318 320 320 320 320 320 320 322
307 307 306 306 306 305 305 304 304 304 303 303 302 301 301 300 300 300 300 300 300 300 300 300 299 299 298 298 297 297 297 298 298 298 297 297 297 296 296 295 295 295 295 294 294 294 294 295 296 296 297 297 297 296 296 296 297 298 298 299 300 301 303 304 305 305 305 305 305 306 307 308 310 312 314 316 317 318 320 321 321 320 320 320 320
306 306 306 305 305 304 303 303 303 303 303 302 302 301 301 301 301 301 301 301 300 300 300 300 299 299 299 298 298 298 298 297 297 297 298 297 297 297 297 296 296 295 295 294 294 294 294 294 295 295 296 296 296 296 296 296 297 297 298 298 299 299 301 302 303 304 304 304 304 305 305 307 309 310 312 314 316 317 319 321 321 320 320 319 319
306 305 305 305 304 304 303 303 303 302 302 302 301 301 300 301 301 301 301 301 300 300 300 299 299 299 298 298 298 298 298 297 297 297 297 297 297 297 297 296 296 295 294 294 293 293 294 294 294 295 296 296 296 296 296 296 296 297 297 297 298 299 299 300 301 302 303 303 303 304 304 305 307 308 310 312 315 316 318 319 319 319 320 320 320
305 305 305 304 304 304 303 302 302 302 302 302 301 301 301 301 301 301 301 300 300 299 299 299 298 298 298 297 297 297 297 297 297 296 296 296 296 296 296 296 296 295 294 293 293 293 293 294 294 295 295 296 296 296 295 296 296 296 296 297 297 298 299 299 300 300 301 302 302 303 303 304 306 307 308 310 314 316 316 317 318 319 319 320 321
304 304 304 304 304 304 302 302 301 301 301 301 301 301 301 300 300 300 300 300 299 299 298 298 298 297 297 297 297 297 296 296 296 296 296 296 296 296 296 296 295 295 294 293 293 293 293 293 293 294 294 295 295 295 295 295 295 296 296 296 296 297 298 298 299 299 299 300 301 301 302 303 304 306 307 309 312 314 316 316 316 318 320 321 322
304 304 304 304 304 303 302 301 301 301 301 301 301 301 300 300 300 300 299 299 299 298 298 298 298 297 297 297 297 297 296 296 296 296 296 296 296 296 296 296 295 295 294 294 293 293 293 293 293 293 294 294 295 295 295 295 295 295 295 296 296 296 297 297 298 299 299 299 300 301 301 302 303 305 307 308 310 313 315 315 315 316 318 319 320
304 304 303 304 304 303 302 301 301 301 301 300 300 300 300 300 299 299 299 299 299 298 298 298 297 297 297 297 297 297 297 296 296 296 296 296 296 296 296 296 295 295 294 294 293 293 293 293 293 293 294 294 294 295 295 295 295 295 295 295 295 296 296 297 297 298 299 299 300 300 301 302 303 304 306 307 309 311 313 313 314 314 315 317 317
304 303 303 303 303 302 302 301 301 300 300 299 299 299 299 299 299 299 299 299 299 299 299 298 298 297 297 297 297 297 297 297 296 296 296 296 296 296 296 296 295 295 294 294 293 293 293 293 293 293 293 294 294 295 295 295 295 295 295 295 295 295 296 296 297 297 298 299 300 300 300 301 302 303 305 306 307 309 310 312 312 313 313 314 315
303 303 302 302 302 301 301 301 300 300 299 299 298 299 299 299 299 299 299 299 299 299 299 299 298 298 297 297 297 297 297 297 296 296 296 296 296 296 296 295 295 295 295 294 294 293 293 293 293 293 293 294 294 294 295 295 295 295 295 295 295 295 295 296 296 296 297 298 299 300 300 301 301 302 303 305 306 307 307 309 311 312 312 312 313
302 302 302 301 301 301 301 301 300 299 299 298 298 299 299 299 300 300 299 299 299 299 299 299 298 298 297 297 297 297 297 297 296 295 296 296 296 295 296 295 295 296 296 295 294 294 294 294 294 293 293 293 294 294 294 295 295 295 295 295 295 295 295 296 296 296 296 297 298 299 300 300 301 301 301 302 303 304 306 307 309 310 311 311 312
302 301 301 301 301 301 301 301 300 299 299 299 299 299 299 299 300 300 299 298 298 298 299 298 298 297 297 297 297 296 297 296 296 296 296 296 296 295 295 295 295 296 296 295 294 294 294 294 294 293 293 293 293 294 294 295 295 295 295 295 295 295 295 295 296 296 296 296 297 298 299 299 300 301 301 301 301 302 303 304 305 306 306 307 307
302 301 301 301 301 301 301 300 300 299 299 299 299 299 299 299 299 298 298 298 298 298 298 298 297 297 297 297 297 297 297 297 296 296 296 296 295 295 295 296 296 296 296 296 295 294 294 294 294 293 293 292 292 293 293 294 294 294 295 295 295 295 295 295 295 295 296 296 296 296 297 298 299 299 300 300 300 301 301 301 301 302 303 303 304
301 301 301 300 300 300 300 300 299 299 299 299 299 299 299 298 298 298 298 298 298 297 297 297 297 297 297 297 297 297 297 297 296 296 296 296 296 295 295 296 296 296 296 296 295 295 295 294 294 294 293 292 292 292 292 292 293 294 294 295 295 295 295 295 295 295 295 296 296 296 296 296 297 297 298 298 298 299 300 300 301 301 301 301 302
301 301 300 300 299 300 299 299 299 299 299 299 299 299 298 298 298 298 298 297 298 297 297 297 297 297 297 296 296 297 297 297 296 296 296 296 296 295 296 296 296 296 296 296 296 295 295 295 294 294 294 293 292 291 292 292 292 293 294 294 295 295 295 295 295 295 295 295 295 295 295 295 296 296 296 297 297 298 298 299 300 300 300 300 301
301 300 300 299 300 300 299 299 299 299 299 298 298 298 298 298 298 298 298 298 298 298 298 298 297 297 297 296 296 297 297 297 296 296 296 296 296 296 296 296 296 296 296 296 296 296 295 295 295 295 294 294 293 292 291 291 292 293 293 294 294 295 295 294 294 295 295 294 294 294 294 294 294 295 295 295 296 297 297 297 298 299 299 300 300
Wind_Speed
25 23 21 20 19 18 17 16 15 14 13 12 12 10 9 9 10 10 10 11 10 9 9 8 8 7 7 7 6 6 6 6 6 6 7 6 7 8 9 10 11 11 11 12 13 13 13 13 12 12 13 14 15 15 15 16 18 19 20 19 19 19 19 21 22 23 25 27 27 26 27 27 26 25 26 26 26 26 25 26 26 24 23 21 19
26 24 22 21 20 19 18 18 17 16 15 14 12 11 10 8 8 8 9 10 10 9 8 8 8 7 7 7 7 7 6 6 6 7 7 7 8 9 9 10 11 11 11 11 12 13 13 13 13 12 13 14 15 16 16 17 18 20 21 21 20 20 20 20 21 22 24 26 26 25 26 27 28 28 27 27 28 28 27 27 27 27 26 23 20
29 27 23 21 21 20 19 18 18 16 15 14 12 10 9 9 9 8 8 9 10 10 9 8 8 7 7 8 8 8 7 8 7 7 8 8 9 8 8 9 10 11 11 12 12 12 13 13 13 13 13 14 15 16 17 18 19 20 21 22 21 21 21 21 22 23 24 25 25 25 26 26 27 29 29 29 30 29 28 28 28 28 27 23 21
31 29 26 24 23 20 19 19 17 15 14 12 10 8 7 7 8 8 9 10 10 10 10 9 9 8 8 8 8 9 9 10 9 9 10 10 8 8 8 9 10 10 11 11 12 12 12 12 12 12 13 14 15 16 17 18 19 19 20 20 21 22 22 23 23 23 24 25 24 23 23 22 23 25 27 28 28 27 28 29 29 29 27 24 23
32 31 29 28 26 22 19 18 16 15 12 9 8 6 4 5 8 8 8 10 10 11 11 11 11 10 10 9 9 10 11 12 12 11 11 11 10 10 10 10 11 11 10 10 11 12 13 13 13 13 13 13 14 16 16 17 18 18 19 19 20 21 23 24 24 23 24 25 26 24 20 17 19 21 22 23 22 23 25 27 29 30 28 26 25
32 31 30 30 27 23 20 19 17 15 11 8 9 8 7 7 8 8 9 10 10 11 12 12 12 12 12 11 11 12 12 13 14 13 13 13 12 12 12 11 11 11 11 11 12 13 14 14 14 14 14 13 15 16 16 16 16 16 17 18 20 21 23 25 26 25 24 25 27 28 26 22 22 21 18 19 19 19 20 22 26 29 28 28 27
31 29 28 28 25 21 20 20 17 12 9 12 13 11 9 8 7 7 9 9 9 10 11 12 12 12 13 13 14 14 13 14 15 15 15 15 14 14 14 13 13 12 12 13 13 13 14 14 15 15 15 15 16 16 16 16 16 15 16 17 19 21 23 25 26 26 26 27 27 28 28 28 28 26 22 20 17 16 18 18 21 25 28 29 29
29 27 27 27 24 21 20 18 16 10 9 14 15 11 10 9 7 6 7 7 8 8 8 9 9 10 12 13 13 13 13 14 15 15 16 16 16 16 16 16 16 15 15 15 15 15 15 15 16 16 16 17 17 17 17 17 16 16 16 17 18 20 22 24 25 25 26 28 28 27 27 27 28 28 27 25 22 21 21 20 20 22 25 28 29
28 27 26 26 25 23 20 17 15 11 8 11 13 10 10 10 9 7 7 8 7 7 7 7 8 9 11 12 12 13 14 14 15 14 15 16 16 16 17 17 16 16 16 16 17 18 18 18 18 18 18 18 18 18 17 17 17 17 17 18 19 20 21 22 24 25 26 27 27 27 28 27 28 28 28 29 29 28 27 26 24 22 24 27 28
28 27 25 25 24 22 20 15 13 13 11 10 10 9 7 7 8 9 9 10 11 11 9 9 10 10 11 12 12 13 14 14 15 16 16 17 17 17 18 17 17 16 16 16 18 19 20 20 19 19 18 18 18 17 17 17 17 17 17 18 20 21 22 22 23 25 26 26 27 27 28 28 28 27 26 27 29 30 29 30 27 24 25 26 26
27 26 23 23 21 18 18 15 13 13 12 10 9 9 7 7 10 10 10 12 13 14 13 13 13 12 12 13 14 15 15 15 17 18 19 18 18 18 18 18 17 16 15 16 18 19 20 20 20 19 18 18 18 18 18 18 19 19 18 19 19 20 21 22 22 24 25 26 26 27 28 28 28 28 27 26 27 28 29 30 29 26 27 27 26
25 24 21 20 19 17 15 13 11 8 7 7 8 8 9 10 12 11 10 11 12 13 12 14 15 16 17 17 17 17 17 18 18 20 21 20 20 19 19 20 20 18 17 19 19 19 19 19 19 19 19 19 19 19 19 20 20 20 20 20 21 21 22 23 23 24 25 25 25 26 27 27 27 28 27 26 26 26 27 28 28 27 28 29 28
22 21 19 17 17 15 12 10 7 3 5 7 8 8 8 9 10 8 8 9 9 9 10 11 13 16 18 19 19 19 20 21 22 22 24 24 23 23 23 23 24 23 21 20 20 19 19 19 18 18 19 19 19 19 20 20 21 20 20 21 22 23 23 24 25 25 25 24 24 25 26 26 26 27 26 25 25 25 26 27 27 27 29 30 29
20 18 17 15 14 13 10 7 4 6 7 7 7 6 6 7 6 5 5 5 5 6 7 8 10 12 15 17 19 20 21 21 22 23 23 24 24 24 23 23 23 22 20 19 20 19 18 19 19 18 17 18 19 19 20 20 19 19 19 19 20 22 23 24 24 24 24 23 22 23 24 24 24 25 25 25 25 25 26 27 28 27 27 28 28
19 17 16 14 13 10 8 6 5 7 9 8 7 6 5 4 3 1 0 2 3 3 4 5 6 7 9 11 13 14 15 16 17 18 19 20 20 20 21 21 20 20 19 20 21 21 20 19 20 19 18 18 18 19 19 19 18 17 17 17 18 19 21 23 23 22 22 21 22 22 21 21 22 22 23 24 25 26 27 27 26 27 27 27 29
19 17 17 15 13 10 9 9 8 9 9 9 8 7 5 4 2 2 4 4 4 3 3 3 1 0 2 3 5 6 7 9 11 13 15 16 18 19 19 19 20 20 20 21 21 22 21 21 21 20 19 19 19 19 19 19 19 18 17 16 16 16 18 20 21 21 21 20 20 20 20 21 21 21 22 24 26 26 27 26 26 27 28 28 29
20 19 19 18 16 15 12 10 9 9 10 10 9 7 5 3 3 4 5 5 5 6 6 6 5 4 3 2 2 3 4 6 8 10 12 13 15 16 16 17 18 19 20 21 22 22 22 22 21 20 20 20 19 18 19 19 19 19 19 17 16 15 16 17 18 19 20 20 20 20 20 21 21 21 21 23 25 27 28 29 29 29 28 29 29
21 20 19 19 19 18 14 12 11 11 10 10 9 8 6 5 5 6 7 7 8 8 7 6 5 3 2 1 2 2 3 5 7 9 11 12 13 15 15 16 17 18 19 20 21 22 22 22 21 21 21 21 19 17 17 19 19 20 20 19 19 19 18 18 17 18 19 20 21 21 21 21 20 20 20 21 23 25 27 28 29 29 29 30 31
22 21 20 20 19 18 16 14 12 11 10 9 9 9 8 8 7 8 9 9 9 7 7 6 4 3 1 1 1 3 4 6 8 10 12 13 13 14 14 15 16 17 18 19 20 21 22 22 22 22 22 22 20 19 18 19 19 20 20 20 21 22 22 22 20 20 21 21 20 21 22 22 21 19 19 20 20 22 25 26 27 28 29 30 31
23 23 22 21 20 18 17 15 13 12 11 10 11 10 10 9 9 9 9 9 8 7 7 6 4 3 3 3 4 5 6 8 10 10 10 10 10 9 9 10 11 12 13 15 17 18 19 21 21 21 22 22 21 21 21 21 21 21 21 21 20 21 22 24 24 24 24 23 23 22 22 23 22 21 21 20 20 21 23 25 27 29 30 30 31
24 24 22 21 20 18 16 14 13 12 12 12 12 11 11 11 10 8 8 7 6 6 6 5 4 4 4 5 6 7 9 11 12 10 8 5 4 5 6 7 8 9 9 10 12 13 14 16 18 19 21 22 23 23 23 24 24 23 23 23 24 24 25 26 27 26 25 25 26 26 26 24 23 23 24 23 23 23 23 24 26 28 30 31 32
24 24 22 21 20 19 16 15 14 13 13 13 11 11 12 13 10 8 7 6 5 4 4 5 5 5 6 6 7 9 10 11 12 10 6 4 4 5 6 7 9 9 10 11 11 12 12 13 15 16 18 20 21 21 21 21 22 22 22 23 25 27 28 28 28 28 27 27 27 28 28 27 25 26 27 26 26 25 25 25 25 27 29 31 31
25 24 23 22 21 19 18 16 15 15 14 13 11 12 13 13 11 8 6 5 4 4 4 5 5 5 6 5 6 7 7 8 8 7 5 5 6 7 7 8 9 10 11 11 12 12 12 13 13 14 15 17 17 17 17 17 18 18 19 19 20 22 25 27 29 30 30 30 28 28 28 27 26 27 29 29 28 27 27 27 27 28 28 30 30
26 25 24 23 22 20 18 17 16 15 14 13 13 13 13 12 10 7 5 4 3 3 4 5 6 5 4 4 4 5 6 7 8 9 8 8 9 9 9 9 10 11 12 12 12 12 13 13 13 14 14 16 16 17 17 16 16 17 17 17 18 18 20 21 24 25 28 29 30 30 29 27 27 28 29 29 29 29 28 28 29 29 29 30 30
28 27 25 23 22 21 19 18 16 16 15 14 14 13 12 11 8 5 4 3 3 3 4 5 4 3 3 4 5 6 7 8 9 9 10 10 10 10 10 10 11 11 12 12 12 12 13 13 14 14 15 16 17 18 18 18 18 18 18 19 19 19 20 20 21 22 23 25 28 30 31 30 29 29 30 30 30 30 30 30 30 30 30 30 31
29 28 26 24 23 21 19 17 17 17 17 16 15 13 11 9 6 4 3 2 3 3 3 3 2 2 3 4 5 7 8 10 10 10 10 10 11 11 12 12 12 11 11 11 12 12 13 13 14 14 14 15 17 18 18 19 19 19 20 21 21 21 22 22 23 23 23 23 25 27 29 31 32 33 33 33 31 31 31 31 32 32 31 29 30
29 28 27 25 23 21 19 18 18 18 17 16 14 11 9 7 6 4 3 3 4 3 3 2 2 2 3 4 6 7 9 11 11 10 10 11 11 12 12 13 13 12 11 11 12 13 13 14 14 15 15 16 18 19 19 20 20 20 21 22 23 23 23 23 24 25 25 25 25 25 26 28 31 34 35 35 33 32 32 33 32 33 32 30 29
29 28 27 25 24 21 20 19 19 18 17 15 12 10 8 6 5 5 4 4 3 3 3 3 3 3 5 6 7 8 9 10 11 12 12 12 12 12 13 12 13 13 13 14 14 15 15 15 16 16 17 18 19 20 22 23 23 23 23 23 23 24 25 25 25 24 24 25 25 25 24 24 25 28 32 35 36 33 32 32 32 31 31 31 30
29 28 27 26 24 22 20 19 18 17 16 14 11 9 7 6 5 5 4 4 3 3 3 4 5 5 6 7 7 8 9 11 13 14 14 14 14 13 13 12 12 13 14 15 15 15 16 16 17 17 18 19 20 21 23 25 26 26 26 25 24 24 25 27 27 26 25 25 25 25 24 23 22 23 26 30 35 36 34 32 31 31 31 30 30
30 28 28 27 25 22 20 18 18 16 14 13 11 9 7 6 6 5 4 4 3 3 5 6 7 7 7 7 8 9 10 11 13 14 14 15 14 14 13 12 13 13 14 15 15 16 17 17 18 18 19 19 20 21 22 23 24 25 26 26 25 24 24 25 27 27 27 26 26 26 26 24 23 23 23 25 29 34 37 36 34 32 32 32 32
30 29 27 26 24 21 19 19 17 15 14 12 10 9 7 7 6 6 6 6 6 7 9 10 10 11 11 11 12 12 12 13 14 14 15 15 15 15 15 15 15 15 16 16 17 17 18 18 19 19 19 20 20 21 21 21 22 23 24 25 26 25 24 23 24 26 28 28 27 26 26 25 24 24 24 25 25 28 33 37 37 35 34 33 33
30 28 27 25 24 22 21 20 17 15 12 11 9 9 7 7 8 9 10 11 11 13 14 15 16 16 16 17 17 17 17 17 17 17 17 18 18 18 19 19 19 19 19 19 19 19 19 19 19 20 21 21 21 21 21 22 22 21 22 23 24 25 24 23 23 24 26 28 29 28 27 26 25 24 24 25 26 28 30 34 37 38 36 34 34
31 29 28 26 24 21 18 16 14 12 11 10 8 8 8 10 12 14 17 18 18 19 20 20 21 20 20 20 20 20 20 21 21 21 21 21 21 22 22 22 21 21 20 19 19 19 19 20 20 21 22 22 23 23 23 23 23 22 22 21 22 23 23 22 22 23 24 26 29 30 28 27 25 24 24 26 27 28 30 32 36 39 38 36 34
31 29 26 23 20 18 16 15 15 13 12 11 9 9 12 15 17 20 22 22 22 22 22 23 23 22 22 22 21 21 22 23 23 23 23 23 23 24 23 23 22 20 20 19 19 19 19 20 20 21 22 23 24 25 26 25 25 24 23 22 21 21 21 21 21 22 24 25 27 30 30 29 27 26 28 31 32 30 31 33 35 38 39 37 35
29 26 23 21 20 20 19 18 16 14 13 12 11 13 17 19 21 23 23 22 22 23 23 24 24 24 23 23 23 23 23 23 23 23 23 24 25 25 25 24 23 22 21 20 19 19 19 19 19 20 22 23 25 26 27 28 27 26 25 23 21 20 20 21 20 21 23 25 27 29 30 31 29 29 31 35 37 35 32 33 35 37 38 38 36
27 25 24 23 22 21 19 17 16 15 14 14 15 18 21 22 22 23 23 22 22 22 23 24 24 25 24 24 23 23 23 23 23 23 23 24 25 25 26 26 25 25 24 23 22 21 20 20 20 20 21 23 25 27 29 30 30 29 28 26 24 22 21 21 21 21 22 25 28 30 31 31 30 29 31 35 37 36 34 32 33 35 36 38 38
24 23 24 23 21 20 20 18 17 16 16 17 18 20 22 22 22 22 22 22 22 22 22 23 24 24 24 23 23 23 23 22 22 22 23 23 23 24 25 26 27 28 27 27 25 23 22 21 21 21 22 24 26 27 29 30 31 31 31 29 28 25 23 22 22 22 23 25 28 30 31 32 31 30 32 34 36 35 32 29 29 32 33 35 37
23 24 24 24 24 23 22 20 19 18 17 18 19 20 21 21 20 20 20 21 22 22 21 22 22 22 22 22 22 22 22 22 22 22 22 22 22 23 25 27 29 30 30 29 27 25 23 22 22 23 23 24 25 27 29 30 31 32 33 32 32 30 27 26 25 25 25 26 28 30 31 32 32 33 33 34 36 36 31 25 23 26 30 32 33
26 26 26 26 25 24 23 22 21 20 19 19 20 20 20 20 19 19 19 20 21 21 21 21 21 21 21 21 21 21 22 22 22 22 21 21 22 23 25 27 29 31 32 31 30 28 27 26 25 24 23 23 25 27 30 31 32 32 33 34 33 32 31 30 29 29 28 28 29 31 32 32 32 34 34 33 34 36 32 24 19 19 25 29 29
28 27 26 26 25 24 23 22 22 21 20 20 20 19 19 19 19 19 20 21 21 21 21 21 21 21 22 22 22 22 22 22 22 21 21 21 22 23 25 27 30 31 32 31 31 31 31 30 28 26 26 25 25 27 30 32 33 33 35 35 34 33 32 32 31 31 31 31 32 33 34 34 33 34 36 33 30 31 30 23 16 14 19 24 25
30 27 26 26 24 23 23 22 21 21 20 19 19 18 18 18 19 20 21 22 22 22 22 22 22 22 22 23 23 23 23 23 22 22 21 22 23 24 26 28 30 32 32 32 31 31 32 32 31 30 29 28 27 28 30 32 34 35 36 36 36 34 34 33 31 32 32 33 35 36 36 36 35 34 35 32 26 24 25 23 16 11 14 19 22
29 26 25 25 24 23 23 22 21 21 19 19 18 17 18 19 20 21 22 22 22 22 21 21 22 22 22 22 22 22 23 23 23 23 23 23 25 25 27 28 30 32 33 32 32 33 34 35 34 33 31 30 30 29 30 32 34 36 36 37 36 35 35 34 32 32 31 30 32 34 34 34 33 32 31 29 23 19 21 22 19 14 12 12 13
28 26 25 25 25 24 24 23 22 20 19 19 18 18 20 21 22 22 22 21 21 20 20 20 20 21 21 21 20 21 22 22 23 23 24 24 25 25 26 28 30 32 33 34 34 35 36 37 38 36 34 33 32 31 31 32 34 36 37 37 36 35 35 34 33 31 29 27 27 29 30 29 29 28 26 25 21 17 17 19 19 16 13 10 7
27 27 25 25 26 26 25 23 21 20 19 20 21 22 23 22 22 21 20 18 17 17 16 17 18 18 18 18 18 18 19 20 22 23 24 24 24 24 26 28 30 32 33 34 35 36 37 39 40 39 37 35 34 33 32 33 34 35 36 37 36 35 35 33 32 30 28 26 24 25 26 26 26 25 23 21 19 17 17 17 16 15 12 8 7
28 27 25 25 27 26 25 23 21 19 20 21 22 22 21 20 19 18 17 16 15 14 14 14 15 16 16 16 16 16 16 17 20 22 23 23 23 24 25 27 29 31 32 33 34 36 38 40 41 41 39 37 36 35 33 33 34 34 35 36 35 35 34 33 32 30 27 25 22 21 22 22 24 24 23 20 18 18 18 17 16 16 14 11 10
29 28 26 27 26 25 25 24 22 20 21 22 21 19 17 16 14 13 13 13 13 13 12 13 13 14 15 15 15 15 15 15 18 21 22 22 22 23 24 26 28 30 31 32 33 35 37 39 40 41 40 38 37 36 35 34 34 34 35 35 35 35 34 33 32 31 28 26 24 23 22 22 23 24 26 26 24 21 19 19 18 18 17 15 13
29 28 27 27 25 24 25 25 22 21 21 20 18 16 14 13 11 11 12 12 12 12 12 12 12 12 12 14 15 15 15 15 17 19 21 21 21 21 23 25 27 29 30 31 32 34 36 38 40 41 41 39 37 36 35 34 33 33 34 34 34 34 34 34 33 32 31 29 28 26 25 24 23 23 25 28 28 26 24 24 23 22 21 20 18
28 28 27 25 23 24 25 24 22 21 20 17 15 14 13 12 13 13 12 12 12 12 11 11 10 10 10 11 13 14 15 16 17 18 19 21 21 20 21 23 25 28 29 30 31 32 34 36 38 40 41 41 39 37 36 34 33 32 31 32 33 33 34 34 34 32 31 30 31 31 30 29 29 29 29 31 31 30 29 29 27 25 23 21 20
29 28 26 24 23 24 25 24 23 22 19 16 15 14 13 13 12 11 11 12 12 11 11 10 10 9 8 9 11 12 14 16 16 16 17 19 20 20 20 22 23 25 27 28 29 30 32 33 35 37 39 40 39 36 33 31 30 29 28 28 29 30 31 32 32 31 30 31 33 35 35 35 35 36 36 36 36 34 32 30 29 27 25 22 21
29 28 26 26 25 25 25 25 24 21 18 16 15 14 13 13 10 8 9 11 11 11 11 12 11 9 9 10 11 11 13 15 16 15 15 17 18 19 20 21 22 23 25 27 28 29 30 31 32 34 36 37 37 34 32 29 28 27 26 25 25 27 28 29 29 29 30 32 35 37 37 38 37 38 38 38 37 37 35 33 30 28 27 26 25
29 29 28 27 25 25 25 24 23 21 18 16 16 14 12 11 10 8 8 8 9 10 11 12 11 10 11 12 12 11 12 13 14 14 14 16 17 18 20 21 21 21 23 25 26 27 28 29 31 32 34 35 36 35 34 32 29 27 25 24 23 25 27 29 29 29 31 34 37 37 38 38 37 37 37 37 36 36 35 34 32 30 28 26 25
Wind_Direction
136 138 137 136 135 134 134 134 133 129 125 127 132 140 153 167 179 186 191 199 204 210 213 211 213 221 227 227 224 232 247 257 267 271 270 272 279 291 299 301 302 300 296 293 291 291 289 288 288 287 289 288 287 286 281 273 268 266 268 271 274 273 270 269 270 272 273 273 272 270 267 266 264 261 255 254 254 255 257 260 263 263 263 263 264
138 140 139 137 137 136 135 134 132 128 125 123 124 129 139 153 169 179 190 203 209 211 216 219 221 226 235 242 240 239 249 255 260 267 267 271 281 291 298 302 305 309 308 303 297 296 295 296 297 295 293 293 292 290 287 283 277 271 267 267 270 272 272 272 273 273 274 275 275 273 269 265 262 259 257 256 256 255 256 259 262 261 261 260 260
137 139 141 143 142 139 137 136 135 134 132 131 133 138 147 156 162 172 187 200 209 213 219 225 226 230 236 242 244 244 252 256 256 265 270 274 282 288 296 298 300 306 311 310 306 304 304 305 307 305 300 297 296 294 292 288 284 280 274 268 266 269 270 272 275 277 278 277 273 270 268 267 264 261 258 256 257 257 258 259 261 260 258 256 254
134 137 144 145 144 142 141 140 138 139 136 135 142 146 154 165 169 179 195 206 214 218 225 233 234 238 241 241 244 247 252 254 252 257 263 263 267 275 282 283 288 298 305 306 306 304 303 304 306 306 305 303 300 298 296 293 289 287 282 274 269 270 270 271 274 278 279 275 268 264 264 265 265 265 264 262 260 259 260 260 260 258 255 252 250
132 137 143 143 145 145 142 144 145 142 142 140 150 166 183 187 183 196 212 218 224 228 231 235 238 242 245 246 249 254 257 258 256 259 260 259 261 269 274 277 283 291 298 301 301 299 296 296 297 300 305 303 300 298 297 296 294 291 287 279 274 275 275 275 274 274 276 275 270 264 259 256 261 269 272 271 267 263 262 260 258 257 255 252 250
135 139 142 141 144 148 147 150 150 146 155 170 178 187 200 201 196 207 224 229 232 234 235 237 240 244 251 255 258 262 265 268 272 273 271 270 273 277 279 283 289 293 295 296 298 299 297 295 295 298 300 298 295 296 297 298 298 297 293 283 277 276 277 277 275 272 273 275 273 269 265 261 262 267 272 273 273 269 265 261 257 256 256 254 251
138 138 141 141 141 148 150 149 150 148 161 175 178 180 186 197 203 208 223 232 233 233 236 240 244 250 256 260 261 264 267 269 273 276 278 280 282 285 287 290 293 293 293 295 297 298 297 296 297 297 298 296 295 294 295 297 297 297 296 289 280 276 275 275 276 276 275 274 275 275 274 270 264 261 263 268 274 273 270 266 260 256 254 254 253
141 136 140 146 147 155 158 152 150 152 160 161 163 173 178 183 201 220 230 234 233 233 239 242 245 253 258 258 260 262 264 265 267 272 278 282 284 286 288 291 291 291 293 295 294 294 294 295 296 297 297 296 295 295 297 299 298 297 297 296 290 282 277 276 277 277 275 274 277 278 278 275 268 263 263 266 268 269 269 268 264 258 256 255 255
143 138 136 145 149 153 158 156 152 158 176 159 150 167 172 166 187 222 246 251 249 244 244 249 249 254 261 260 258 259 262 264 267 272 276 280 284 286 287 290 292 293 295 296 294 294 295 296 297 297 296 295 294 294 296 298 297 295 294 294 293 289 285 282 279 277 276 276 278 278 277 276 275 272 269 267 265 265 265 265 264 261 259 258 257
139 139 133 139 144 145 150 158 160 165 185 179 162 179 177 166 196 221 242 254 261 258 253 253 250 254 261 257 252 254 259 263 265 268 272 277 282 285 288 291 293 294 295 295 295 295 296 297 297 295 295 296 297 296 295 294 292 291 290 289 289 289 288 287 285 283 280 278 275 274 273 273 274 275 273 269 266 264 264 264 264 263 263 264 262
133 137 132 134 140 144 148 157 163 161 172 180 180 198 212 233 240 241 246 254 262 263 261 256 248 249 254 251 248 249 253 261 265 269 273 278 282 285 287 288 290 292 294 294 294 295 298 300 299 296 294 293 294 294 294 292 290 290 292 293 291 289 288 287 285 285 283 280 277 274 273 273 273 273 274 272 267 266 266 266 265 263 263 266 266
132 136 134 132 137 145 148 150 154 157 177 189 189 202 220 241 251 252 252 254 257 259 261 259 251 248 249 249 249 250 251 255 261 267 271 274 278 282 284 285 285 283 283 285 286 290 295 298 300 299 296 294 293 293 294 293 293 294 295 295 294 292 289 286 283 281 281 280 280 279 277 277 274 272 273 272 267 266 266 268 270 266 264 266 268
134 136 138 138 140 145 147 144 148 194 232 222 213 216 226 241 252 257 253 251 253 252 255 260 257 254 254 252 250 252 254 256 259 264 267 269 272 276 281 284 285 285 285 286 287 289 293 294 297 299 298 296 294 294 293 294 295 295 294 293 294 293 291 288 285 282 280 280 280 280 279 278 275 273 271 268 266 264 262 265 270 269 268 271 271
140 142 146 147 144 146 151 154 185 238 236 217 205 210 222 231 238 245 247 255 270 269 264 263 260 259 260 258 256 257 260 263 265 266 267 269 270 274 278 281 284 288 289 288 288 289 292 295 296 296 297 295 293 292 291 292 294 295 295 294 295 295 294 293 290 285 282 281 281 281 280 279 277 274 270 265 263 260 257 260 266 267 268 270 269
142 145 146 144 141 142 151 165 187 206 203 189 178 180 188 183 175 181 260 353 341 315 300 287 271 262 257 256 257 259 261 264 268 270 271 272 272 272 272 274 276 278 280 283 284 285 286 290 292 292 293 293 293 291 289 288 290 294 298 297 296 296 296 295 292 286 282 282 281 280 281 281 280 276 271 268 265 260 258 260 262 263 262 263 265
138 137 134 132 132 133 141 152 160 164 163 161 159 157 152 134 104 62 48 34 23 20 24 36 41 155 204 226 240 249 256 259 262 265 268 271 273 274 274 275 274 271 271 273 277 282 284 285 290 295 295 292 292 293 293 290 289 291 294 296 295 296 298 297 294 289 284 282 280 279 281 282 283 281 275 271 268 264 261 260 259 258 258 258 261
132 129 128 128 129 131 137 139 138 137 136 139 141 137 127 110 86 70 68 66 67 67 77 90 97 109 133 169 204 222 235 246 254 259 265 270 275 279 281 281 280 277 273 271 273 277 280 283 288 293 293 291 291 295 298 297 293 292 294 296 296 293 293 294 294 292 288 283 280 278 278 280 282 282 278 271 267 263 260 259 258 257 256 256 256
129 128 129 131 132 135 135 130 126 127 129 132 135 129 121 116 106 99 97 93 86 84 88 93 97 107 129 184 218 236 244 254 262 267 271 275 279 282 284 284 284 284 281 278 276 276 277 280 282 284 286 289 289 292 296 297 298 297 296 297 296 294 291 290 289 290 288 285 282 279 278 279 279 278 277 274 270 266 262 259 258 256 254 254 254
133 133 135 135 137 137 135 132 128 129 131 131 129 126 122 116 111 110 110 102 94 86 76 69 67 65 39 324 283 270 266 268 270 273 278 283 285 285 287 288 287 285 283 280 278 277 276 277 277 278 280 283 285 288 289 290 293 296 296 295 293 292 291 290 288 287 286 285 284 283 282 281 279 277 274 274 273 271 268 264 261 259 257 255 255
138 136 136 135 136 137 136 136 135 133 132 131 133 135 131 123 120 120 115 104 93 75 58 49 41 19 338 315 304 294 289 285 282 286 293 295 294 294 299 305 304 299 294 290 287 285 281 279 279 279 280 282 284 287 287 285 284 286 289 291 291 290 290 290 290 287 285 285 284 283 283 282 282 281 277 273 272 270 270 268 264 262 259 258 257
138 136 136 137 138 138 137 139 139 137 137 140 145 147 142 137 134 128 115 102 88 64 45 30 14 348 320 310 306 303 304 303 304 311 316 311 315 329 331 332 333 326 319 315 310 306 299 294 291 290 291 292 291 291 291 290 288 285 282 282 285 286 288 289 290 289 286 284 282 279 278 279 282 283 279 274 272 270 269 269 267 264 261 260 260
137 136 138 140 139 137 139 142 142 142 145 147 144 140 144 147 145 135 121 107 87 56 31 9 353 335 321 315 311 310 312 315 318 321 323 324 337 346 344 341 341 337 333 332 328 325 321 315 310 306 305 305 306 307 307 306 305 301 295 288 285 283 284 284 286 286 285 284 283 281 280 279 279 280 277 273 271 271 271 271 268 265 262 260 261
138 138 139 139 137 137 141 143 143 144 146 146 140 137 144 150 150 143 129 110 79 37 9 349 339 332 328 326 326 331 336 342 347 348 348 348 347 346 346 346 345 341 339 339 337 335 333 329 327 325 321 321 324 326 328 326 322 318 314 309 302 295 290 286 284 284 283 283 283 284 284 283 282 280 278 275 272 272 273 272 269 265 263 261 261
137 137 138 138 138 139 141 142 142 144 144 143 140 140 144 147 149 145 127 103 68 20 351 339 336 338 343 351 360 11 16 18 18 14 8 0 353 349 347 347 345 344 345 347 345 343 340 338 339 340 338 337 338 339 338 336 332 329 325 322 319 315 309 303 297 292 287 283 281 280 281 282 282 281 280 279 276 273 272 271 270 268 267 265 264
136 137 139 140 141 141 140 140 140 141 143 143 142 144 145 144 142 135 117 89 50 13 351 344 345 355 20 26 24 22 22 23 21 15 10 4 360 356 354 352 350 351 353 353 352 350 349 349 349 349 348 346 344 343 342 340 336 332 329 326 323 321 318 315 312 307 299 291 284 280 278 277 277 277 277 278 278 276 273 271 269 269 268 269 269
139 140 142 142 143 142 140 140 140 141 143 143 143 144 142 139 130 115 97 60 33 17 7 7 16 46 59 47 32 19 16 18 17 12 10 8 6 3 1 1 0 359 357 356 354 353 353 355 355 354 351 347 344 342 341 340 337 332 329 327 325 323 321 318 316 314 310 303 293 285 279 274 271 270 271 273 275 276 275 272 269 267 265 267 269
142 142 143 143 143 143 142 142 143 143 144 143 142 141 138 135 124 102 70 35 24 23 35 61 81 83 75 61 44 28 17 13 13 17 18 15 13 10 8 9 7 4 1 358 356 355 355 355 354 352 350 348 345 342 339 338 338 336 332 327 324 323 322 321 320 317 315 311 304 296 289 281 273 269 266 267 269 272 274 274 272 268 265 264 265
143 143 144 144 142 142 143 143 144 145 144 143 141 139 137 128 111 90 58 38 35 37 56 83 92 85 72 58 45 35 26 22 26 34 35 30 26 21 17 16 13 10 9 7 3 1 358 355 353 352 351 349 347 343 341 338 337 336 335 331 326 322 321 322 322 320 319 317 312 305 298 292 285 277 269 264 261 262 267 271 273 272 268 263 262
144 144 145 145 143 143 143 143 144 144 143 141 139 136 132 117 98 79 62 60 64 55 64 81 84 77 66 53 45 42 39 37 38 40 40 38 37 34 30 26 22 19 16 13 9 5 1 357 356 354 352 350 347 346 347 344 340 337 335 333 330 326 323 323 323 324 323 321 320 315 308 301 296 289 280 270 262 257 258 262 266 269 269 265 262
143 142 142 142 141 143 143 140 140 141 141 139 135 128 120 105 90 82 81 88 93 91 92 91 83 74 67 60 57 54 48 45 44 43 41 39 38 39 37 33 29 25 20 15 10 7 4 2 1 358 355 352 350 349 349 347 343 339 335 333 332 329 326 324 325 326 326 326 326 323 318 311 303 296 290 281 269 259 254 253 256 259 263 264 262
142 141 140 141 142 142 140 136 134 135 135 133 128 119 109 99 90 90 102 111 114 108 101 93 86 82 79 75 71 66 61 58 55 52 49 45 43 43 42 39 35 30 26 22 17 13 11 9 5 2 359 356 354 351 349 345 343 340 336 334 333 332 330 328 327 326 327 329 329 326 323 319 313 307 300 292 281 267 256 250 250 251 253 256 257
144 144 143 143 143 142 139 137 134 134 132 127 122 115 102 95 95 101 111 117 115 106 98 92 87 84 82 79 75 72 69 66 64 61 59 56 53 51 48 44 40 36 33 29 26 22 19 15 11 8 5 3 360 356 351 348 345 342 339 337 336 334 334 335 334 332 332 333 332 329 326 323 320 317 312 305 293 279 265 253 248 248 249 250 250
147 146 145 144 145 145 146 146 143 140 135 127 123 113 101 101 104 108 113 113 109 102 96 91 87 83 81 79 76 73 71 69 68 66 64 61 58 55 51 47 44 40 36 33 30 27 23 20 17 14 12 10 6 2 358 354 350 346 343 340 337 336 336 337 339 339 339 338 337 333 329 325 324 325 325 322 309 292 277 263 251 246 247 248 247
149 149 150 150 150 147 145 142 138 136 132 128 123 112 107 109 109 111 113 109 104 99 94 89 85 81 79 77 74 72 71 69 69 67 65 63 60 56 52 47 43 38 35 31 29 26 24 21 19 16 13 11 8 4 1 357 354 351 347 342 339 338 337 337 340 343 345 346 343 339 335 331 329 329 330 330 326 312 291 274 261 251 247 246 247
152 152 152 151 148 143 139 137 135 136 135 129 121 115 112 111 111 113 112 108 102 97 93 88 84 79 76 74 72 71 70 70 70 69 68 65 61 57 52 46 42 37 33 29 25 21 19 17 15 13 11 9 7 4 1 358 355 353 351 347 342 339 338 338 340 344 349 351 349 346 343 339 335 329 327 329 329 322 305 284 270 259 250 247 246
150 150 149 147 146 143 140 140 139 139 137 128 120 116 114 112 112 112 110 106 102 96 91 86 82 78 75 73 71 71 71 72 71 69 67 64 60 55 50 46 42 39 35 31 26 21 16 13 9 8 9 9 7 5 3 360 356 354 352 350 347 343 340 340 342 345 350 354 354 353 350 346 340 330 327 330 331 324 311 295 278 265 256 249 247
149 151 150 147 145 141 139 140 142 140 136 128 120 117 116 115 114 111 106 102 98 93 88 84 80 78 75 73 71 70 70 70 68 66 64 61 57 51 47 44 40 36 34 31 28 24 19 14 10 8 10 10 9 8 7 3 360 357 355 352 351 349 345 344 345 348 351 354 356 356 353 351 347 337 331 335 337 331 319 304 286 269 258 250 247
151 150 147 143 141 138 135 136 138 137 134 129 121 117 118 118 116 112 106 100 95 90 88 84 80 78 75 73 71 68 68 67 65 64 62 58 54 48 44 41 36 33 32 30 29 28 25 21 17 14 14 14 13 13 11 8 6 3 1 358 355 353 352 349 348 349 351 353 355 356 355 354 352 346 338 337 341 341 333 318 297 274 259 252 249
148 146 145 144 143 139 134 132 134 134 133 131 124 119 119 119 115 112 107 100 94 90 88 86 83 80 77 74 71 68 67 66 64 63 61 56 51 47 43 39 35 32 31 30 30 29 27 25 23 21 18 17 18 17 15 13 12 9 7 5 1 358 357 355 351 349 350 352 353 354 356 355 353 350 345 340 341 347 345 334 314 285 263 255 253
146 147 147 148 147 142 136 133 132 131 132 132 127 122 121 119 114 110 106 101 96 92 91 89 86 83 80 75 72 69 67 64 62 60 58 54 51 47 42 39 35 32 30 31 31 30 28 27 26 24 22 20 20 21 19 17 16 14 12 10 8 5 3 0 357 353 351 351 352 353 355 355 353 350 348 343 341 348 351 343 325 294 270 261 258
146 150 150 152 152 145 137 133 131 131 133 134 131 126 123 119 113 110 107 103 99 95 94 92 88 85 80 75 71 68 64 62 61 59 57 54 50 46 42 38 35 32 31 31 31 30 28 27 26 24 24 23 22 21 21 19 18 17 15 13 12 10 7 4 1 358 354 352 352 353 354 354 351 348 346 344 343 350 356 352 342 317 285 270 265
148 151 153 154 154 147 140 134 131 132 135 136 134 128 123 118 114 111 109 106 102 99 96 93 88 84 79 73 70 66 62 61 60 57 54 51 48 44 40 37 35 32 31 30 29 27 26 26 26 24 23 23 24 22 21 20 18 17 17 15 14 13 10 6 3 360 356 354 356 356 355 353 350 347 346 345 347 355 3 2 357 348 328 304 288
151 153 154 153 152 150 144 136 131 132 136 136 133 128 122 119 115 113 112 111 107 102 98 94 88 82 77 73 68 65 61 59 56 53 50 47 45 43 40 37 35 33 31 30 28 27 26 26 25 24 23 23 24 24 22 20 18 17 16 15 15 15 13 9 6 3 358 357 1 3 1 357 352 349 350 352 355 4 14 12 6 360 355 356 358
153 154 153 150 149 149 145 137 133 133 135 132 129 126 124 121 117 114 113 114 112 106 100 95 87 79 74 70 67 63 59 56 53 50 46 44 43 42 40 38 36 33 31 29 28 27 27 26 25 24 23 23 23 23 22 20 18 16 16 15 14 15 15 12 10 8 3 1 3 8 9 6 2 359 359 359 3 18 29 27 21 14 9 17 47
155 155 153 149 146 146 145 141 135 134 135 131 128 128 128 127 123 117 115 114 113 109 101 95 89 81 73 67 65 63 59 54 51 48 44 41 40 41 41 39 36 34 31 30 28 27 28 27 24 23 22 21 21 21 20 19 17 15 15 15 13 15 16 15 13 13 11 9 8 9 12 13 14 16 16 15 18 30 40 42 38 31 28 35 54
155 155 153 149 145 146 147 142 136 134 134 132 129 129 132 133 133 130 125 119 114 112 107 101 95 87 76 67 62 61 58 53 50 47 43 39 38 40 40 38 36 34 32 30 29 27 27 26 24 22 21 20 19 19 18 17 16 14 14 14 13 14 17 17 15 15 16 18 19 18 19 21 23 26 29 33 36 38 42 48 48 44 42 47 57
156 155 155 152 149 149 148 144 138 136 136 136 135 136 136 136 137 138 135 126 120 118 116 111 103 92 78 67 60 57 55 51 49 49 45 40 38 39 40 38 36 35 33 31 29 28 26 25 23 22 21 20 19 18 17 16 15 13 12 11 11 14 17 17 17 17 17 21 26 27 28 29 30 31 34 37 40 42 44 49 53 55 56 58 63
157 155 154 154 153 151 149 144 140 139 140 142 143 143 142 139 135 133 130 125 121 118 114 109 103 93 79 67 59 56 52 48 49 51 47 42 39 39 39 38 36 34 33 31 30 29 27 25 22 21 20 20 19 17 16 15 13 13 12 10 10 13 16 18 19 19 19 22 27 29 31 31 31 32 33 33 36 40 44 50 55 58 61 64 67
159 157 155 153 153 152 149 144 142 142 142 141 139 138 138 138 137 133 128 125 121 113 104 99 94 86 78 68 60 55 50 47 49 52 48 43 39 37 38 38 37 35 34 32 30 29 28 26 23 21 21 20 19 17 15 13 13 13 13 12 12 14 17 18 19 19 21 25 28 30 30 30 28 29 30 31 33 34 36 41 49 54 58 60 64
160 157 153 149 148 149 149 148 147 145 143 142 141 138 138 141 143 140 133 128 122 111 100 95 89 81 75 69 62 55 48 46 49 52 49 43 38 35 36 36 35 35 35 33 31 29 27 27 25 23 22 22 20 17 15 14 16 16 15 15 15 16 18 20 19 19 23 29 32 32 31 30 29 28 29 31 32 32 33 34 39 46 52 55 58
160 157 153 151 150 151 153 154 154 150 144 142 141 139 142 152 158 156 144 135 128 117 103 93 86 79 73 67 62 54 46 44 47 50 49 44 39 35 35 34 32 31 33 34 32 28 26 26 25 23 23 22 21 19 18 17 19 18 17 18 19 19 21 22 21 21 26 32 34 34 32 31 30 30 30 31 32 33 34 35 37 40 44 48 52